Regional Weather Roundup
Issued by NWS Green Bay, WI

Home | Current Version | Previous Version | Text Only | Print | Product List | Glossary On
Versions: 1 2 3 4 5 6 7 8 9 10 11 12 13 14 15 16 17 18 19 20 21 22 23 24 25 26 27 28 29 30 31 32 33 34 35 36 37 38 39 40 41 42 43 44 45 46 47 48 49 50
000
ASUS43 KGRB 180910
RWRGRB

NORTH-CENTRAL AND NORTHEAST WISCONSIN REGIONAL WEATHER ROUNDUP
NATIONAL WEATHER SERVICE GREEN BAY WI
400 AM CDT FRI APR 18 2014

WIZ005-009-010>012-018-019-181000-
NORTH CENTRAL WISCONSIN

CITY           SKY/WX    TMP DP  RH WIND       PRES   REMARKS
IRONWOOD       PTCLDY    23  21  93 SW3       30.27S
MANITOWISH WTR FOG       18  17  95 CALM      30.27S VSB 1/2
ARBOR VITAE    HAZE      22  17  81 CALM      30.27S VSB 1/4
EAGLE RIVER    CLEAR     23  23 100 CALM      30.26F
LAND O LAKES   CLEAR     26  24  89 CALM      30.27S
RHINELANDER    CLEAR     27  21  78 CALM      30.28S
PHILLIPS       PTCLDY    19  18  96 CALM      30.28S FOG
ANTIGO         MOCLDY    29  24  81 NW6       30.27S
TOMAHAWK       CLEAR     24  22  94 CALM      30.29R
MERRILL        CLEAR     26  24  93 CALM      30.29S
$$

WIZ013-073-181000-
NORTHEAST WISCONSIN

CITY           SKY/WX    TMP DP  RH WIND       PRES   REMARKS
IRON MOUNTAIN  CLOUDY    32  23  69 NW13      30.26R
MARINETTE      MOCLDY    30  27  86 CALM      30.29S
OCONTO         CLOUDY    34  27  74 NW5       30.30R
$$

WIZ017-030-035>037-045-181000-
CENTRAL WISCONSIN

CITY           SKY/WX    TMP DP  RH WIND       PRES   REMARKS
MEDFORD        CLEAR     26  23  91 CALM      30.29S
WAUSAU         CLEAR     30  23  75 CALM      30.28S
MOSINEE        CLEAR     30  27  86 NW3       30.30S
MARSHFIELD     CLEAR     30  26  85 NW3       30.29F
WISC RAPIDS    CLOUDY    33  25  72 N5        30.32S
STEVENS POINT  MOCLDY    31  24  74 CALM      30.31R
WAUPACA        CLOUDY    36  27  69 NW6       30.31R
SHAWANO        CLOUDY    36  28  72 NW5       30.31R
CLINTONVILLE   CLOUDY    34  28  80 NW5       30.30S
$$

WIZ038-039-048-051-181000-
FOX VALLEY

CITY           SKY/WX    TMP DP  RH WIND       PRES   REMARKS
NWS GREEN BAY  CLOUDY    36  29  75 N6        30.29F
APPLETON       CLOUDY    34  28  80 NW8       30.29S
OSHKOSH        PTCLDY    32  28  85 NW3       30.29S
FOND DU LAC    CLOUDY    31  28  89 CALM      30.29S
$$

WIZ022-050-052-181000-
EAST CENTRAL WISCONSIN

CITY           SKY/WX    TMP DP  RH WIND       PRES   REMARKS
STURGEON BAY   CLOUDY    34  27  75 NW8       30.29S
MANITOWOC      CLOUDY    38  33  82 N9        30.29R
SHEBOYGAN      CLOUDY    36  31  82 NW7       30.29R
$$

LMZ563-521-522-541>543-181000-
LAKESHORE

STATION/POSITION TIME  TEMP    WIND        PRES    VSBY  WAVE
                       AIR SEA DIR/SP/G                  HT/PER
                 (UTC) (F)     (DEG/KT/KT) (MB)    (MI)  (FT/S)
SHEBOYGAN LKSHOR 0900   39     320/  9/ 12 1026.2R
KEWAUNEE LKSHORE 0900   37     340/  6/  9 1026.0S
NORTHPORT PIER   0900   34     300/  6/ 10 1025.4S
SISTER BAY LKSHO 0900   33     350/  8/  9   N/A
MENOMINEE LKSHOR 0900   33     310/  6/ 10 1026.3R
$$



USA.gov is the U.S. government's official web portal to all federal, state and local government web resources and services.